Regional Weather Roundup
Issued by NWS

Home | Current Version | Previous Version | Graphics & Text | Print | Product List | Glossary On
Versions: 1 2 3 4 5 6 7 8 9 10 11 12 13 14 15 16 17 18 19 20 21 22 23 24 25 26 27 28 29 30 31 32 33 34 35 36 37 38 39 40 41 42 43 44 45 46 47 48 49 50
000
ASUS43 KMKX 250521
RWRWI

WISCONSIN REGIONAL WEATHER ROUNDUP
NATIONAL WEATHER SERVICE MILWAUKEE/SULLIVAN WI
1200 AM CDT SAT MAR 25 2017

NOTE: "FAIR" INDICATES FEW OR NO CLOUDS BELOW 12,000 FEET WITH NO
SIGNIFICANT WEATHER AND/OR OBSTRUCTIONS TO VISIBILITY.

WIZ001-002-006>008-014>016-023>028-250600-
NORTHWEST WISCONSIN

CITY           SKY/WX    TMP DP  RH WIND       PRES   REMARKS
SUPERIOR ARPT  CLOUDY    35  33  93 NE9       30.25R WCI  27
ASHLAND        CLOUDY    34  32  92 NE10      30.24S WCI  26
HAYWARD        CLOUDY    36  29  75 NE8G16    30.19F WCI  30
SIREN          CLOUDY    36  30  78 NE9       30.20R WCI  29
CUMBERLAND     CLOUDY    34  30  86 E8        30.17S WCI  27
RICE LAKE      CLOUDY    36  32  84 CALM      30.20R
CHETEK         CLOUDY    36  32  85 NE7       30.18R WCI  30
LADYSMITH      CLOUDY    36  32  85 NE9G17    30.19S WCI  29
EAU CLAIRE     CLOUDY    38  33  82 NE13      30.16R WCI  30
MENOMONIE      CLOUDY    38  33  82 NE7       30.16F WCI  33
NEW RICHMOND   CLOUDY    37  31  81 NE9       30.18R WCI  30
OSCEOLA        CLOUDY    38  31  78 NE6       30.21R WCI  33
$$

WIZ003>005-009-010-017-018-250600-
NORTH CENTRAL WISCONSIN

CITY           SKY/WX    TMP DP  RH WIND       PRES   REMARKS
MANITOWISH WTR CLOUDY    32  32 100 E6        30.18S WCI  26
ARBOR VITAE    CLOUDY    34  32  92 NE9       30.17F WCI  27
WOODRUFF       CLOUDY    34  32  92 NE9       30.17F WCI  27
RHINELANDER    CLOUDY    34  31  88 NE9       30.17F WCI  27
EAGLE RIVER    CLOUDY    32  32  99 NE9       30.17F WCI  24
LAND O LAKES   CLOUDY    33  32  98 NE5       30.20F WCI  28
PHILLIPS       CLOUDY    33  32  95 NE8       30.16S WCI  26
TOMAHAWK       CLOUDY    33  30  89 NE5       30.18R WCI  29
MEDFORD        CLOUDY    34  32  92 E10       30.15R WCI  26
MERRILL        CLOUDY    34  32  91 NE9       30.18R WCI  27
$$

WIZ029-030-035-036-043>047-250600-
CENTRAL WISCONSIN

CITY           SKY/WX    TMP DP  RH WIND       PRES   REMARKS
WAUSAU         CLOUDY    35  32  88 NE7       30.16R WCI  29
MOSINEE        CLOUDY    34  34 100 NE12      30.17R WCI  25
MARSHFIELD     CLOUDY    36  32  85 NE10      30.14R WCI  28
STEVENS POINT  CLOUDY    34  34 100 E10       30.17R WCI  26
WAUPACA        DRIZZLE   38  35  91 NE6       30.19R WCI  33
WAUTOMA        LGT RAIN  36  35  96 NE9       30.18R WCI  29
WISC RAPIDS    LGT RAIN  37  36  96 E9        30.17R WCI  30
CAMP DOUGLAS   LGT RAIN  37  36  98 E6        30.14S WCI  32
$$

WIZ011>013-019>022-031-037>040-048>050-250600-
NORTHEAST WISCONSIN

CITY           SKY/WX    TMP DP  RH WIND       PRES   REMARKS
ANTIGO         CLOUDY    32  31  98 NE15      30.17R WCI  22
SHAWANO        CLOUDY    37  33  86 NE12      30.19S WCI  29
OCONTO         CLOUDY    35  32  90 NE8       30.20R WCI  28
STURGEON BAY   LGT RAIN  34  32  92 NE10      30.20R WCI  26
GREEN BAY      LGT RAIN  36  35  96 NE17      30.19R WCI  26
MANITOWOC      LGT RAIN  36  34  92 NE9G16    30.18S FOG     WCI  29
APPLETON       LGT RAIN  34  34 100 NE14      30.15F WCI  24
CLINTONVILLE   DRIZZLE   34  34 100 NE7       30.19S WCI  28
OSHKOSH        RAIN      35  33  92 NE15      30.16F FOG     WCI  25
$$

WIZ032>034-041-042-053>061-250600-
SOUTHWEST WISCONSIN

CITY           SKY/WX    TMP DP  RH WIND       PRES   REMARKS
LA CROSSE      LGT RAIN  40  38  93 NE3       30.13F
SPARTA         LGT RAIN  37  37  97 NE7       30.15S WCI  32
VIROQUA        CLOUDY    37  36  98 E17       30.10S WCI  27
BOSCOBEL       CLOUDY    39  38  96 NE8       30.10S FOG     WCI  33
PRAIRIE DU CHI CLOUDY    38  37  97 E8        30.09S WCI  32
PLATTEVILLE    CLOUDY    39  39 100 NE15      30.06F WCI  31
$$

WIZ056-057-062-063-064-067-068-250600-
SOUTH CENTRAL WISCONSIN

CITY           SKY/WX    TMP DP  RH WIND       PRES   REMARKS
REEDSBURG      DRIZZLE   36  36 100 E12       30.13R WCI  28
BARABOO/DELLS  DRIZZLE   36  34  95 E10G17    30.12S WCI  28
LONE ROCK      LGT RAIN  38  35  89 E13       30.12S FOG     WCI  30
MINERAL POINT  CLOUDY    37  37 100 NE14G22   30.07S WCI  29
MADISON        CLOUDY    37  34  89 MISG      30.12R
MIDDLETON      CLOUDY    38  36  91 NE10G17   30.12R WCI  31
WATERTOWN      CLOUDY    37  35  92 NE15      30.12S WCI  28
MONROE         LGT RAIN  37  37 100 NE17      30.06F WCI  28
JANESVILLE     DRIZZLE   41  39  93 NE10G17   30.08F
$$

WIZ051-052-058>065-066-070>072-250600-
SOUTHEAST WISCONSIN

CITY           SKY/WX    TMP DP  RH WIND       PRES   REMARKS
MILWAUKEE      LGT RAIN  38  34  85 N15G25    30.10F WCI  29
WAUKESHA       CLOUDY    36  32  87 NE12G21   30.12S WCI  27
MILWAUKEE/TIMM CLOUDY    36  32  87 N16G24    30.13F WCI  26
RACINE         CLOUDY    37  34  89 N18G28    30.11F WCI  27
KENOSHA        CLOUDY    38  35  89 N17G24    30.08F WCI  28
FOND DU LAC    LGT RAIN  37  33  85 NE12      30.16S WCI  29
SHEBOYGAN      LGT RAIN  36  33  89 NE15      30.16S WCI  27
WEST BEND      CLOUDY    36  34  93 NE13G20   30.14F WCI  27
JUNEAU         CLOUDY    36  33  90 NE13      30.14F WCI  27
$$

LSZ147-162-250600-
LAKE SUPERIOR

STATION/POSITION TIME  TEMP    WIND        PRES    WAVE
                       AIR SEA DIR/SP/G            HT/PER
                 (UTC) (F)     (DEG/KT/KT) (MB)    (FT/S)
DEVILS ISLAND    0500   35      80/ 21/ 22 1025.5F
PORT WING        0440   35      50/  7/ 10 1024.0F
SAXON HARBOR     0440   34      50/  9/ 11 1023.7F
$$

LMZ867-665-643>646-250600-
LAKE MICHIGAN

STATION/POSITION TIME  TEMP    WIND        PRES    WAVE
                       AIR SEA DIR/SP/G            HT/PER
                 (UTC) (F)     (DEG/KT/KT) (MB)    (FT/S)
CHAMBERS ISLAND  0440   33     350/ 15/ 18 1021.7F
NORTHPORT PIER   0430   34      10/ 12/ 14 1022.4F
SISTER BAY       0435   34      20/ 10/ 11   N/A
KEWAUNEE LAKESHO 0454   35      40/ 12/ 17 1021.9R
SHEBOYGAN LAKESH 0500   36      10/ 19/ 21 1021.6F
PORT WASHINGTON  0440   38      10/ 10/ 19 1021.7F
MILWAUKEE LAKESH 0500   37      10/ 17/ 21   N/A
KENOSHA   LAKESH 0500   38      10/ 24/ 28 1018.6
$$

TC  - TEMPERATURE IN CELSIUS
VSB - VISIBILITY IN STATUTE MILES
WCI - WIND CHILL INDEX
HX  - HEAT INDEX




USA.gov is the U.S. government's official web portal to all federal, state and local government web resources and services.